#timestamp,LO_Frequency,Hit,StdDev 
1650070815.6,286047002.6,N
1650070835.5,286047002.1,N
1650070855.3,286047004.4,Y
1650070875.2,286047000.2,P
1650070895.9,286047001.0,N
1650070915.7,286046996.7,P
1650070935.6,286046997.0,N
1650070955.4,286046996.9,N
1650070975.2,286046997.1,N
1650070995.1,286046999.4,N
1650070996.0,286046999.4,N
1650071015.8,286046999.5,N
1650071035.7,286046996.9,N
1650071055.5,286046997.8,N
1650071075.3,286046995.5,N
1650071095.2,286046993.3,Y
1650071115.0,286046997.5,P
1650071115.9,286046997.5,P
1650071135.8,286046999.5,N
1650071155.6,286046996.6,Y
1650071175.4,286046998.5,P
1650071195.3,286047000.0,N
1650071215.1,286047004.3,P
1650071235.9,286047004.3,N
1650071255.7,286047002.6,N
1650071275.5,286047001.5,N
1650071295.4,286047001.8,N
1650071315.2,286047002.3,N
1650071335.0,286047001.3,N
1650071335.9,286047001.3,N
1650071355.8,286047003.6,N
1650071375.6,286047002.7,N
1650071395.5,286047001.5,N
1650071415.3,286047003.3,N
1650071435.1,286047003.1,N
1650071455.9,286047002.9,N
1650071475.7,286047003.2,N
1650071495.5,286047003.7,N
1650071515.4,286047001.5,N
1650071535.2,286047003.7,N
1650071555.1,286047002.1,N
1650071556.0,286047002.1,N
1650071575.8,286047001.5,N
1650071595.6,286047001.8,N
1650071615.5,286047001.7,N
1650071635.3,286046999.7,N
1650071655.2,286047001.2,N
1650071675.9,286046998.2,N
1650071695.7,286046999.8,N
1650071715.6,286046999.9,N
1650071735.4,286047002.1,N
1650071755.2,286047001.2,N
1650071775.1,286046997.5,N
1650071776.0,286046997.5,N
1650071795.8,286046997.3,N
1650071815.7,286046998.1,N
1650071835.5,286047000.2,N
1650071855.3,286047002.3,N
1650071875.2,286047001.7,N
1650071895.0,286047002.0,N
1650071895.9,286047002.0,N
1650071915.8,286047003.5,N
1650071935.6,286047004.0,N
1650071955.4,286047000.1,N
1650071975.3,286047002.7,N
1650071995.1,286046999.8,N
1650072015.8,286047001.5,N
1650072035.7,286047003.2,N
1650072055.5,286047003.5,N
1650072075.4,286047005.6,N
1650072095.2,286047005.3,N
1650072115.0,286047003.0,N
1650072115.9,286047003.0,N
1650072135.8,286047001.5,N
1650072155.6,286047003.5,N
1650072175.5,286047003.5,N
1650072195.3,286047001.3,N
1650072215.1,286047004.3,N
1650072235.9,286047001.8,N
1650072255.7,286047002.7,N
1650072275.5,286046998.4,N
1650072295.4,286046999.5,N
1650072315.2,286047001.0,N
1650072335.1,286047000.7,N
1650072336.0,286047000.7,N
1650072355.8,286047000.1,N
1650072375.6,286047004.0,N
1650072395.5,286047005.4,Y
1650072415.3,286047003.0,P
1650072435.1,286047005.2,P
1650072455.9,286047003.0,N
1650072475.7,286047001.5,N
1650072495.6,286047002.4,N
1650072515.4,286047000.6,N
1650072535.2,286047000.1,N
1650072555.1,286047000.4,N
1650072556.0,286047000.4,N
1650072575.8,286047000.2,N
1650072595.7,286047001.0,N
1650072615.5,286046999.9,N
1650072635.3,286047000.1,N
1650072655.2,286047002.7,N
1650072675.0,286047002.3,N
1650072675.9,286047002.3,N
1650072695.7,286047000.3,N
1650072715.6,286046998.2,N
1650072735.4,286046998.9,N
1650072755.3,286046999.3,N
1650072775.1,286047002.6,N
1650072776.0,286047002.6,N
1650072795.8,286047001.1,N
1650072815.7,286046997.3,N
1650072835.5,286046998.9,N
1650072855.3,286047000.8,N
1650072875.2,286046999.9,N
1650072895.0,286047000.6,N
1650072895.9,286047000.6,N
1650072915.8,286047000.7,N
1650072935.6,286047000.4,N
1650072955.4,286047002.3,N
1650072975.3,286046998.2,N
1650072995.1,286046998.1,N
1650073015.8,286047000.0,N
1650073035.7,286047000.5,N
1650073055.5,286047001.1,N
1650073075.4,286046999.9,N
1650073095.2,286046998.1,N
1650073115.0,286047000.4,N
1650073115.9,286047000.4,N
1650073135.8,286047002.5,N
1650073155.6,286047002.1,N
1650073175.5,286047004.0,N
1650073195.3,286047006.0,Y
1650073215.1,286047004.2,P
1650073235.9,286047003.9,N
1650073255.7,286047002.3,N
1650073275.6,286046998.3,N
1650073295.4,286047002.5,N
1650073315.2,286047004.3,N
1650073335.1,286047001.5,N
1650073336.0,286047001.5,N
1650073355.8,286047000.9,N
1650073375.6,286046998.9,N
1650073395.5,286046999.5,N
1650073415.3,286046999.3,N
1650073435.2,286046998.4,N
1650073455.9,286046999.6,N
1650073475.7,286046999.3,N
1650073495.6,286046998.3,N
1650073515.4,286046996.9,N
1650073535.2,286046997.5,N
1650073555.1,286046995.8,N
1650073556.0,286046995.8,N
1650073575.8,286046999.2,N
1650073595.7,286046996.6,N
1650073615.5,286046997.0,N
1650073635.3,286046996.6,N
1650073655.2,286046997.5,N
1650073675.0,286046997.7,N
1650073675.9,286046997.7,N
1650073695.8,286047000.5,N
1650073715.6,286046999.1,N
1650073735.4,286046998.6,N
1650073755.3,286047001.2,N
1650073775.1,286047002.4,N
1650073795.9,286047000.0,N
1650073815.7,286046996.9,N
1650073835.5,286046998.5,N
1650073855.4,286047000.9,N
1650073875.2,286047000.5,N
1650073895.1,286046999.6,N
1650073896.0,286046999.6,N
1650073915.8,286047000.5,N
1650073935.6,286047000.8,N
1650073955.5,286047000.3,N
1650073975.3,286047001.0,N
1650073995.2,286046998.3,N
1650074015.9,286047000.7,N
1650074035.7,286047000.0,N
1650074055.6,286047000.1,N
1650074075.4,286046999.9,N
1650074095.2,286047002.2,N
1650074115.1,286047002.5,N
1650074116.0,286047002.5,N
1650074135.8,286047000.1,N
1650074155.7,286047002.4,N
1650074175.5,286047002.2,N
1650074195.3,286046999.9,N
1650074215.2,286047002.3,N
1650074235.0,286047001.6,N
1650074235.9,286047001.6,N
1650074255.8,286047000.4,N
1650074275.6,286046997.1,N
1650074295.4,286046996.9,N
1650074315.3,286046999.2,N
1650074335.1,286046999.6,N
1650074355.8,286046996.6,N
1650074375.7,286046997.3,N
1650074395.5,286046995.1,N
